Regional Weather Roundup
Issued by NWS Sioux Falls, SD

Home | Current Version | Previous Version | Graphics & Text | Print | Product List | Glossary On
Versions: 1 2 3 4 5 6 7 8 9 10 11 12 13 14 15 16 17 18 19 20 21 22 23 24 25 26 27 28 29 30 31 32 33 34 35 36 37 38 39 40 41 42 43 44 45 46 47 48 49 50
361
ASUS43 KFSD 302110
RWRFSD

WEATHER ROUNDUP FOR SE SOUTH DAKOTA/SW MINNESOTA/NW IOWA
NATIONAL WEATHER SERVICE SIOUX FALLS SD
400 PM CDT SUN APR 30 2017

NOTE: "FAIR" INDICATES FEW OR NO CLOUDS BELOW 12,000 FEET WITH NO
SIGNIFICANT WEATHER AND OR OBSTRUCTIONS TO VISIBILITY.


SDZ038>040-050-052>070-302200-
SOUTHEAST SOUTH DAKOTA

CITY           SKY/WX    TMP DP  RH WIND       PRES   REMARKS
BROOKINGS      LGT RAIN  41  36  81 NE21G26   29.78F
CHAMBERLAIN    CLOUDY    52  25  34 N12       29.82F
HURON          CLOUDY    51  21  30 NE18G30   29.82F
MADISON        LGT RAIN  39  39 100 NE26G33   29.76F
MITCHELL       LGT RAIN  40  34  79 N17       29.80F
SIOUX FALLS    LGT RAIN  41  41 100 NE28G36   29.72F FOG
WINNER         FAIR      52  21  29 NE18G29   29.82F
YANKTON        CLOUDY    39  37  93 N20       29.73R
$$

MNZ071-072-080-081-089-090-097-098-302200-
SOUTHWEST MINNESOTA

CITY           SKY/WX    TMP DP  RH WIND       PRES   REMARKS
FAIRMONT       CLOUDY    42  37  82 NE20      29.76F
JACKSON        CLOUDY    37  37 100 NE29      29.73F
LUVERNE        LGT RAIN  37  34  87 NE18G35   29.74F
MARSHALL       LGT RAIN  42  37  82 NE17G29   29.82F
MONTEVIDEO     DRIZZLE   45  37  76 E18G26    29.84F
PIPESTONE      LGT RAIN  39  34  81 NE22G31   29.74F
REDWOOD FALLS  LGT RAIN  44  34  67 NE15G26   29.82F
TRACY          CLOUDY    41  37  84 NE21G29   29.80F
WINDOM         CLOUDY    39  37  93 NE22      29.77S
WORTHINGTON    CLOUDY    37  36  96 NE28G38   29.73F
$$

IAZ001>003-012>014-020>022-031-032-NEZ013-014-SDZ071-302200-
NORTHWEST IOWA

CITY           SKY/WX    TMP DP  RH WIND       PRES   REMARKS
CHEROKEE       LGT RAIN  40  39  99 NE24G35   29.61F
DENISON        MIX PCPN  41  41 100 NE26      29.57S VSB 1/2
ESTHERVILLE    CLOUDY    40  38  93 NE28G36   29.69F
ORANGE CITY    LGT RAIN  37  37 100 NE18G36   29.63F
SHELDON        CLOUDY    39  36  87 NE26G40   29.67F
SIOUX CITY     HVY RAIN  39  38  96 NE13G18   29.67R FOG
SPENCER        CLOUDY    41  37  86 NE33      29.65F
STORM LAKE     LGT RAIN  39  37  93 NE29G38   29.61F
$$

ABBREVIATIONS USED IN REMARKS
   TC - TEMPERATURE IN CELSIUS
  WCI - WIND CHILL INDEX
   HX - HEAT INDEX
  VSB - VISIBILITY





USA.gov is the U.S. government's official web portal to all federal, state and local government web resources and services.